Location: York
(31.8935°S, 116.7682°E)
Time: 18:44:18
(UTC+08:00)

deb Explorer IX - Pass Details

Date: 27 September 2022
Orbit: 533 x 1057 km, 38.8° (Epoch: 30 November)

Event Time Altitude Azimuth Distance (km) Brightness Sun altitude
Rises 18:34:28 0° 331° (NNW) 3,506 ? -5.6°
Reaches altitude 10° 18:37:39 10° 344° (NNW) 2,473 ? -6.2°
Maximum altitude 18:42:12 24° 35° (NE) 1,578 ? -7.2°
Drops below altitude 10° 18:46:17 10° 88° (E) 2,195 ? -8.1°
Enters shadow 18:46:22 10° 88° (E) 2,214 ? -8.1°
Sets 18:48:56 0° 102° (ESE) 3,026 - -8.6°
